GSAT-15 (GAGAN/PRN 139)

Last updated on Nov. 15, 2019, 4:21 a.m. UTC

1 41028U 15065A   19318.07180512 -.00000244  00000-0  00000+0 0  9998
2 41028   0.0597  98.3666 0003042 119.6624 314.2430  1.00272751 14720
UTC
Height (km)
Latitude
Longitude
Inclination
Orbital Period
UTC large
Height (km)
Speed (km/s)
/
Latitude / Longitude
Inclination (degrees)
Orbital Period (minutes)
Azimuth
Elevation
Range (km)
Doppler Factor
iOS Compass Heading
iOS Angle

Next 30 passes for location: Hong Kong

Rise time Rise Azimuth (degrees) Set time Set Azimuth (degrees) Duration Max altitude (degrees)

No matching passes for this satellites